Location: Casteau
(50.5142°N, 4.0161°E)
Time: 06:25:57
(UTC+00:00)

Cosmos 2082 Rocket - Pass Details

Date: 18 September 2020
Orbit: 834 x 853 km, 71.0° (Epoch: 27 October)

Event Time Altitude Azimuth Distance (km) Brightness Sun altitude
Rises 22:22:40 0° 326° (NW) 3,393 6.3 -35.7°
Reaches altitude 10° 22:25:13 10° 319° (NW) 2,455 5.3 -35.8°
Enters shadow 22:28:13 29° 298° (WNW) 1,510 3.8 -36.0°
